Spokane, WA

9:43 PM PST on December 04, 2016 (GMT -0800)
Spokane International

Weather History for KGEG - July, 2014

Change the Weather History Date:

Friday, July 18, 2014

  Actual Average Record
Temperature  
Mean Temperature 73 °F 71 °F  
Max Temperature 85 °F 84 °F 102 °F (1960)
Min Temperature 61 °F 57 °F 42 °F (1962)
Degree Days  
Heating Degree Days 0 1  
Month to date heating degree days 0 25  
Since 1 June heating degree days 106 161  
Since 1 July heating degree days 0 25  
Cooling Degree Days 8 6  
Month to date cooling degree days 222 87  
Year to date cooling degree days 242 150  
Since 1 June cooling degree days 236 136  
Growing Degree Days 22 (Base 50)    
Moisture  
Dew Point 41 °F    
Average Humidity 36    
Maximum Humidity 55    
Minimum Humidity 17    
Precipitation  
Precipitation 0.00 in 0.02 in 0.24 in (1884)
Month to date precipitation 0.13 0.42  
Year to date precipitation 9.37 9.30  
Snow  
Snow 0.00 in 0.00 in 0.00 in (2002)
Month to date snowfall 0.0 0.0  
Since 1 June snowfall 0.0 0.0  
Since 1 July snowfall 0.0 0.0  
Snow Depth 0.00 in    
Sea Level Pressure  
Sea Level Pressure 29.85 in    
Wind  
Wind Speed 10 mph (South)    
Max Wind Speed 18 mph    
Max Gust Speed 24 mph    
Visibility 8 miles    
Events      
T = Trace of Precipitation, MM = Missing Value Source: NWS Daily Summary

Daily Weather History Graph

Daily Weather History Graph

Search for Another Location

Airport or City:

Trip Planner

Search our weather history database for the weather conditions in past years. The results will help you decide how hot, cold, wet, or windy it might be!

Date:

Astronomy

Jul. 18, 2014 Rise Set
Actual Time 5:11 AM PDT 8:41 PM PDT
Civil Twilight 4:32 AM PDT 9:19 PM PDT
Nautical Twilight 3:41 AM PDT 10:09 PM PDT
Astronomical Twilight 2:33 AM PDT 11:17 PM PDT
Moon No Moon Rise 1:07 PM PDT (7/18)
Length of Visible Light 16h 46m
Length of Day
15h 29m
Waning Gibbous, 53% of the Moon is Illuminated
Jul 18
Waning Gibbous
Jul 18
Last Quarter
Jul 26
New
Aug 3
First Quarter
Aug 10
Full

Hourly Weather History & Observations

Time (PDT) Temp. Dew Point Humidity Pressure Visibility Wind Dir Wind Speed Gust Speed Precip Events Conditions
12:53 AM 72.0 °F 42.1 °F 34% 29.73 in 6.0 mi South 13.8 mph - N/A   Smoke
1:53 AM 69.1 °F 44.1 °F 40% 29.75 in 6.0 mi SSW 15.0 mph 24.2 mph N/A   Smoke
2:53 AM 66.9 °F 45.0 °F 45% 29.77 in 10.0 mi South 12.7 mph - N/A   Overcast
3:53 AM 64.9 °F 45.0 °F 48% 29.80 in 10.0 mi South 9.2 mph - N/A   Overcast
4:53 AM 64.4 °F 44.6 °F 49% 29.82 in 10.0 mi South 10.4 mph - N/A   Overcast
5:53 AM 62.6 °F 44.6 °F 52% 29.84 in 10.0 mi South 6.9 mph - N/A   Overcast
6:53 AM 60.8 °F 44.6 °F 55% 29.86 in 10.0 mi SSE 9.2 mph - N/A   Overcast
7:53 AM 60.8 °F 44.6 °F 55% 29.88 in 10.0 mi SSE 8.1 mph - N/A   Overcast
8:53 AM 62.6 °F 44.6 °F 52% 29.89 in 10.0 mi South 10.4 mph - N/A   Mostly Cloudy
9:26 AM 62.6 °F 42.8 °F 48% 29.94 in 9.0 mi South 8.1 mph - N/A   Mostly Cloudy
9:53 AM 64.4 °F 42.8 °F 45% 29.90 in 9.0 mi South 5.8 mph - N/A   Mostly Cloudy
10:53 AM 68.0 °F 42.8 °F 40% 29.90 in 7.0 mi South 6.9 mph - N/A   Mostly Cloudy
11:38 AM 71.6 °F 42.8 °F 35% 29.94 in 8.0 mi SSW 8.1 mph - N/A   Mostly Cloudy
11:53 AM 71.6 °F 41.0 °F 33% 29.94 in 8.0 mi South 9.2 mph - N/A   Mostly Cloudy
12:53 PM 77.0 °F 39.2 °F 26% 29.89 in 5.0 mi SW 9.2 mph - N/A   Smoke
1:53 PM 78.8 °F 39.2 °F 24% 29.88 in 6.0 mi SSW 13.8 mph - N/A   Smoke
2:53 PM 82.4 °F 37.4 °F 20% 29.87 in 7.0 mi South 12.7 mph 23.0 mph N/A   Scattered Clouds
3:53 PM 82.4 °F 37.4 °F 20% 29.86 in 5.0 mi SSW 11.5 mph 19.6 mph N/A   Smoke
4:53 PM 84.2 °F 35.6 °F 18% 29.85 in 5.0 mi SSW 12.7 mph - N/A   Smoke
5:53 PM 82.4 °F 35.6 °F 19% 29.84 in 4.0 mi SSW 11.5 mph - N/A   Smoke
6:53 PM 84.2 °F 35.6 °F 18% 29.83 in 6.0 mi SSW 10.4 mph - N/A   Smoke
7:53 PM 80.6 °F 35.6 °F 20% 29.83 in 9.0 mi South 8.1 mph - N/A   Overcast
8:53 PM 80.1 °F 39.9 °F 24% 29.83 in 10.0 mi SSW 12.7 mph - N/A   Mostly Cloudy
9:53 PM 75.9 °F 41.0 °F 29% 29.83 in 10.0 mi South 8.1 mph - N/A   Mostly Cloudy
10:53 PM 75.2 °F 41.0 °F 29% 29.82 in 10.0 mi SSW 12.7 mph - N/A   Mostly Cloudy
11:53 PM 73.4 °F 44.6 °F 36% 29.82 in 10.0 mi SSW 12.7 mph - N/A   Overcast